User: anonymous   Login
Location: Bailleul
(50.3375°N, 2.8513°E)
Time: 20:51:02
(UTC+00:00)
Language:

deb Agena D - Orbit

View from above orbital plane
View from above orbital plane
View from above satellite
View from above satellite

Ground track
Ground track

The orbit data is extracted from the following two-line orbital elements,

1 04709U 70025BX  22024.45977678  .00001086  00000-0  33855-3 0  9999
2 04709 100.0416 350.8038 0098322  88.2632 272.9810 14.40777350670778
Epoch (UTC): 24 January 2022 11:02:04
Eccentricity: 0.0098322
inclination: 100.0416°
perigee height: 686 km
apogee height: 826 km
right ascension of ascending node: 350.8038°
argument of perigee: 88.2632°
revolutions per day: 14.40777350
mean anomaly at epoch: 272.9810°
orbit number at epoch: 67077

The dashed part of the orbit path shows where the satellite is in the earth's shadow,  

DLR